カタログに戻る

ORBCOMM FM 21

運用中通信LEO
NORAD 25475·PAYLOAD·🇺🇸 United States

打ち上げ Sep 23, 1998 から Cape Canaveral Space Force Station

Loading…

次のパス (今後24時間)

TLE

最新Source: Space-Track

元期: Sep 14, 2026, 11:43 UTC

1 25475U 98053A   26257.48850905  .00000426  00000-0  18507-3 0  9995
2 25475  45.0076 276.2632 0003218 291.4893  68.5612 14.38290628462637

AllMySatでORBCOMM FM 21をリアルタイム追跡

Download on the App Store